AirNav   Advertisement
 
 468 users online  

4Y1 Raether Airport
Howell, Michigan, USA

GOING TO HOWELL?


FAA INFORMATION EFFECTIVE 14 SEPTEMBER 2017

Location

FAA Identifier: 4Y1
Lat/Long: 42-33-54.7000N / 083-51-22.6500W
42-33.911667N / 083-51.377500W
42.5651944 / -83.8562917
(estimated)
Elevation: 982 ft. / 299 m (estimated)
Variation: 05W (1990)
From city: 6 miles SE of HOWELL, MI
Time zone: UTC -4 (UTC -5 during Standard Time)
Zip code: 48843

Airport Operations

Airport use: Open to the public
Activation date: 04/1983
Control tower: no
ARTCC: CLEVELAND CENTER
FSS: LANSING FLIGHT SERVICE STATION
NOTAMs facility: LAN (NOTAM-D service available)
Attendance: IREG
Wind indicator: yes
Segmented circle: no

Airport Communications

CTAF: 122.9
WX AWOS-3 at OZW (7 nm NW): 118.875 (517-546-4450)

Nearby radio navigation aids

VOR radial/distance  VOR name  Freq  Var
SVMr312/14.9SALEM VORTAC114.3003W
PSIr243/16.4PONTIAC VORTAC111.0003W
FNTr197/24.6FLINT VORTAC116.9006W
DXOr320/30.3DETROIT VOR/DME113.4006W
JXNr060/32.4JACKSON VOR/DME109.6005W
CRLr333/35.7CARLETON VOR/DME115.7003W
LANr109/38.2LANSING VORTAC110.8005W

 
NDB name  Hdg/Dist  Freq  Var  ID
TECUMSEH008/31.923906WTCU - -.-. ..-

Airport Services

Runway Information

Runway 17/35

Dimensions: 2206 x 70 ft. / 672 x 21 m
Surface: turf, in fair condition
Runway edge markings: RY 17/35 THLD & DSPLCD THLDS MKD WITH 3 FT CONES.
RUNWAY 17  RUNWAY 35
Latitude: 42-34.086333N42-33.736833N
Longitude: 083-51.443333W083-51.312800W
Elevation: 981.0 ft.
Traffic pattern: leftleft
Runway heading: 169 magnetic, 164 true349 magnetic, 344 true
Displaced threshold: 538 ft.551 ft.
Obstructions: 45 ft. trees, 8:1 slope to clear
APCH RATIO 6:1 TO DSPLCD THLD. BASED ON +43 FT FREES 261 FT FM DSPLCD THLD 90 FT L.
39 ft. trees, 84 ft. left of centerline
APCH RATIO 7:1 AT DSPLCD THLD BASED ON 50 FT TREES 380 FT FM DSPLCD THLD 55 FT L.

Airport Ownership and Management from official FAA records

Ownership: Privately-owned
Owner: RODNEY F. & JUDY E. RAETHER
2650 FISHBECK ROAD
HOWELL, MI 48843
Phone 517-546-4498
Manager: RODNEY F. RAETHER
2650 FISHBECK ROAD
HOWELL, MI 48843
Phone 517-546-4498

Airport Operational Statistics

Aircraft operations: 50/year *
100% transient general aviation
* for 12-month period ending 31 December 2015

Additional Remarks

HEAVY EQUIPMENT ADJACENT TO WEST SIDE OF RY 35.
DEER ON & INVOF RY.
ULTRALIGHT ACTIVITY ON & INVOF ARPT.
FOR CD CTC DETROIT APCH AT 800-499-8181.

Instrument Procedures

There are no published instrument procedures at 4Y1.

Some nearby airports with instrument procedures:

KOZW - Livingston County Spencer J Hardy Airport (7 nm NW)
Y47 - Oakland Southwest Airport (11 nm E)
9G2 - Price's Airport (15 nm N)
KPTK - Oakland County International Airport (20 nm E)
KARB - Ann Arbor Municipal Airport (21 nm S)
 
Loc | Ops | Rwys | IFR | FBO | Links
Com | Nav | Svcs | Stats | Notes


 
Area around 4Y1 (Raether Airport)
 
Road maps at: MapQuest Bing Google
 
Aerial photo
No photo
 
Sectional chart

 
Airport distance calculator
Flying to Raether Airport? Find the distance to fly.

From to 4Y1

Sunrise and sunset
Times for 25-Sep-2017
 Local
(UTC-4)
 Zulu
(UTC)
Morning civil twilight06:5910:59
Sunrise07:2711:27
Sunset19:2723:27
Evening civil twilight19:5523:55

Current date and time
Zulu (UTC)  25-Sep-2017 04:29:01
Local (UTC-4)  25-Sep-2017 00:29:01
 
METAR
KOZW 
6nm NW 
250414Z AUTO 00000KT 10SM CLR 20/17 A3009 RMK AO2 T02040166
TAF
KPTK 
20nm E 
241722Z 2418/2518 14005KT P6SM SKC FM251400 15004KT P6SM SCT040
KYIP 
25nm SE 
241722Z 2418/2518 12005KT P6SM SKC FM251000 00000KT 4SM BR FEW120 FM251300 13005KT P6SM SCT050
KFNT 
25nm N 
241722Z 2418/2518 16005KT P6SM SKC FM251400 18004KT P6SM SCT045
NOTAMs
Click for the latest NOTAMs
NOTAMs are issued by the DoD/FAA and will open in a separate window not controlled by AirNav.

 

 
 

Would you like to see your business listed on this page?

 If your business provides an interesting product or service to pilots, flight crews, aircraft, or users of the Raether Airport, you should consider listing it here.  To start the listing process, click on the button below
 
Add a business
 

Other Pages about Raether Airport

Page from the Michigan Airport Directory (PDF)
 
Update a link
 
Copyright © AirNav, LLC. All rights reserved. Privacy Policy  Contact